"2010-05-28 00:00:00",150220,6.081,342.1,1.957,0.444,20.95,109.0449,22.44,23.31,43.92,0,110.9,13.24,23.27,304.1
"2010-05-28 00:00:30",150221,6.729,340.2,0.809,0.169,21.03,109.0449,22.44,23.31,44.01,0,110.9,13.24,23.27,302.2
"2010-05-28 00:01:00",150222,6.365,336,1.603,0.182,21.02,109.0449,22.44,23.31,44,0,110.9,13.24,23.27,298.0
"2010-05-28 00:01:30",150223,6.332,334.9,1.937,0.13,20.94,109.0421,22.43,23.31,44.46,0,110.9,13.24,23.26,296.9
"2010-05-28 00:02:00",150224,6.314,333.4,1.119,0.126,20.96,109.0227,22.38,23.3,44.4,0,110.9,13.24,23.21,295.4
"2010-05-28 00:02:30",150225,6.158,333.2,1.003,0.122,20.88,109.0114,22.36,23.31,45.06,0,110.9,13.24,23.19,295.2
"2010-05-28 00:03:00",150226,5.828,335.6,2.395,0.288,21.06,109.0114,22.36,23.3,44.04,0,110.9,13.24,23.19,297.6
"2010-05-28 00:03:30",150227,5.722,336.1,1.439,0.16,20.93,109.0127,22.36,23.28,44.48,0,110.9,13.24,23.19,298.1
"2010-05-28 00:04:00",150228,5.742,337.5,3.126,0.269,21.13,109.0133,22.36,23.28,43.74,0,110.9,13.25,23.19,299.5
"2010-05-28 00:04:30",150229,5.554,338.3,1.625,0.202,21.12,109.016,22.37,23.29,43.6,0,110.9,13.25,23.20,300.3
"2010-05-28 00:05:00",150230,5.647,339,1.071,0.198,21.05,109.0182,22.37,23.28,43.4,0,110.9,13.25,23.20,301.0
"2010-05-28 00:05:30",150231,5.379,340.7,0.954,0.111,20.97,109.0203,22.38,23.29,43.17,0,110.9,13.25,23.21,302.7
"2010-05-28 00:06:00",150232,5.216,341.3,0.713,0.178,20.99,109.0212,22.38,23.3,42.9,0,110.9,13.25,23.21,303.3
"2010-05-28 00:06:30",150233,4.94,345.1,1.799,0.271,21.01,109.0262,22.39,23.29,43.32,0,110.9,13.25,23.22,307.1
"2010-05-28 00:07:00",150234,5.435,341.9,2.858,0.188,21.03,109.0323,22.41,23.29,43.15,0,110.9,13.25,23.24,303.9
"2010-05-28 00:07:30",150235,5.421,342.1,2.16,0.281,21.09,109.0347,22.42,23.3,42.99,0,110.9,13.25,23.25,304.1
"2010-05-28 00:08:00",150236,5.699,339.4,1.74,0.16,20.97,109.0375,22.42,23.29,43.44,0,110.9,13.25,23.25,301.4
"2010-05-28 00:08:30",150237,5.598,339.5,1.189,0.068,20.91,109.0387,22.43,23.29,43.67,0,110.9,13.25,23.26,301.5
"2010-05-28 00:09:00",150238,5.277,340.6,1.16,0.144,20.94,109.0412,22.43,23.29,43.53,0,110.9,13.25,23.26,302.6
"2010-05-28 00:09:30",150239,5.117,344.2,1.541,0.118,20.99,109.0458,22.44,23.28,42.57,0,110.9,13.25,23.27,306.2
"2010-05-28 00:10:00",150240,5.093,343.2,1.569,0.117,20.97,109.0455,22.44,23.28,42.96,0,110.9,13.26,23.27,305.2
"2010-05-28 00:10:30",150241,5.039,344.5,1.453,0.099,21.01,109.0464,22.45,23.27,42.24,0,110.9,13.26,23.28,306.5
"2010-05-28 00:11:00",150242,4.987,343.3,1.461,0.228,21,109.0464,22.45,23.29,42.42,0,110.9,13.26,23.28,305.3
"2010-05-28 00:11:30",150243,4.544,345.4,1.147,0.184,21.09,109.0467,22.45,23.28,41.66,0,110.9,13.26,23.28,307.4
"2010-05-28 00:12:00",150244,4.423,348.3,2.047,0.294,21.08,109.0473,22.45,23.29,41.44,0,110.9,13.26,23.28,310.3
"2010-05-28 00:12:30",150245,3.527,350.8,4.304,0.663,21.17,109.0636,22.49,23.3,41.31,0,110.9,13.26,23.32,312.8
"2010-05-28 00:13:00",150246,4.662,343,2.352,0.267,21.03,109.0811,22.53,23.33,41.42,0,110.9,13.25,23.36,305.0
"2010-05-28 00:13:30",150247,4.608,342.3,1.178,0.105,21.04,109.0811,22.53,23.35,41.29,0,110.9,13.25,23.36,304.3
"2010-05-28 00:14:00",150248,4.218,345.7,1.8,0.198,21.16,109.0831,22.54,23.35,40.99,0,110.8,13.25,23.37,307.7
"2010-05-28 00:14:30",150249,4.157,346.6,1.113,0.153,21.11,109.1056,22.6,23.39,40.95,0,110.9,13.25,23.43,308.6
"2010-05-28 00:15:00",150250,3.942,346.8,2.411,0.163,21.16,109.1136,22.62,23.4,40.81,0,110.8,13.25,23.45,308.8
"2010-05-28 00:15:30",150251,3.149,352.7,2.78,0.427,21.16,109.1139,22.62,23.41,40.65,0,110.8,13.25,23.45,314.7
"2010-05-28 00:16:00",150252,3.031,354.3,2.584,0.373,21.16,109.1133,22.62,23.44,40.55,0,110.8,13.25,23.45,316.3
"2010-05-28 00:16:30",150253,2.605,355.7,2.675,0.305,21.16,109.1161,22.62,23.44,40.41,0,110.8,13.25,23.46,317.7
"2010-05-28 00:17:00",150254,3.547,352.5,2.258,0.483,21.13,109.1371,22.68,23.46,40.35,0,110.8,13.25,23.51,314.5
"2010-05-28 00:17:30",150255,4.211,349.9,1.913,0.277,21.09,109.1426,22.69,23.48,40.43,0,110.8,13.25,23.52,311.9
"2010-05-28 00:18:00",150256,4.467,348.4,1.409,0.19,21.03,109.1353,22.67,23.49,40.89,0,110.8,13.25,23.50,310.4
"2010-05-28 00:18:30",150257,4.817,345.7,1.139,0.072,20.97,109.1171,22.63,23.48,41.51,0,110.8,13.25,23.46,307.7
"2010-05-28 00:19:00",150258,4.845,344.5,0.932,0.064,20.92,109.1102,22.61,23.47,41.72,0,110.8,13.25,23.44,306.5
"2010-05-28 00:19:30",150259,4.885,344.9,1.003,0.089,20.95,109.1127,22.62,23.46,41.37,0,110.8,13.25,23.45,306.9
"2010-05-28 00:20:00",150260,5.093,344.9,0.7,0.056,20.94,109.1097,22.61,23.44,41.21,0,110.8,13.26,23.44,306.9
"2010-05-28 00:20:30",150261,5.277,345,1.59,0.16,20.93,109.0875,22.55,23.42,41.46,0,110.8,13.26,23.38,307.0
"2010-05-28 00:21:00",150262,5.23,342.6,1.33,0.138,20.93,109.0817,22.54,23.42,41.37,0,110.8,13.26,23.37,304.6
"2010-05-28 00:21:30",150263,5.316,341.4,1.16,0.061,20.92,109.0817,22.54,23.41,41.71,0,110.8,13.26,23.37,303.4
"2010-05-28 00:22:00",150264,5.49,341.1,1.078,0.097,20.9,109.0817,22.54,23.39,41.75,0,110.8,13.26,23.37,303.1
"2010-05-28 00:22:30",150265,5.584,343.1,0.845,0.104,20.93,109.0811,22.53,23.39,41.71,0,110.8,13.26,23.36,305.1
"2010-05-28 00:23:00",150266,5.26,342.4,1.099,0.109,21,109.0778,22.53,23.37,41.69,0,110.8,13.26,23.36,304.4
"2010-05-28 00:23:30",150267,5.182,344.6,1.455,0.168,21,109.078,22.53,23.38,41.54,0,110.8,13.26,23.36,306.6
"2010-05-28 00:24:00",150268,4.901,344.4,1.321,0.141,20.98,109.0814,22.54,23.37,41.62,0,110.8,13.26,23.37,306.4
"2010-05-28 00:24:30",150269,5.005,342.9,1.49,0.117,20.93,109.0814,22.54,23.37,41.84,0,110.8,13.26,23.37,304.9
"2010-05-28 00:25:00",150270,5.067,343.9,1.194,0.08,20.94,109.0811,22.53,23.37,41.95,0,110.8,13.26,23.36,305.9
"2010-05-28 00:25:30",150271,4.924,343,0.983,0.119,20.92,109.0809,22.53,23.38,41.97,0,110.8,13.26,23.36,305.0
"2010-05-28 00:26:00",150272,4.824,342.7,1.115,0.091,20.88,109.0811,22.53,23.37,42.05,0,110.8,13.26,23.36,304.7
"2010-05-28 00:26:30",150273,4.698,342.8,1.134,0.129,20.83,109.0803,22.53,23.37,42.08,0,110.8,13.26,23.36,304.8
"2010-05-28 00:27:00",150274,4.614,343.9,1.371,0.117,20.87,109.0772,22.52,23.36,42.04,0,110.8,13.26,23.35,305.9
"2010-05-28 00:27:30",150275,4.652,343.2,1.764,0.11,20.87,109.0803,22.53,23.37,41.71,0,110.8,13.26,23.36,305.2
"2010-05-28 00:28:00",150276,4.634,344.7,0.736,0.056,20.93,109.0817,22.54,23.37,41.08,0,110.8,13.26,23.37,306.7
"2010-05-28 00:28:30",150277,4.555,344.9,0.787,0.054,20.89,109.0817,22.54,23.38,40.89,0,110.8,13.26,23.37,306.9
"2010-05-28 00:29:00",150278,4.508,341.4,1.638,0.084,20.82,109.0817,22.54,23.4,41.15,0,110.8,13.26,23.37,303.4
"2010-05-28 00:29:30",150279,4.462,340.3,1.03,0.111,20.77,109.0842,22.54,23.41,41.38,0,110.8,13.26,23.37,302.3
"2010-05-28 00:30:00",150280,4.576,340.2,0.981,0.097,20.78,109.0904,22.56,23.41,41.36,0,110.8,13.26,23.39,302.2
"2010-05-28 00:30:30",150281,4.411,341,1.116,0.096,20.77,109.096,22.57,23.42,41.17,0,110.8,13.26,23.40,303.0
"2010-05-28 00:31:00",150282,4.489,340.9,0.994,0.089,20.72,109.1025,22.59,23.42,41.02,0,110.9,13.26,23.42,302.9
"2010-05-28 00:31:30",150283,4.473,341,0.878,0.105,20.75,109.1064,22.6,23.43,40.82,0,110.9,13.26,23.43,303.0
"2010-05-28 00:32:00",150284,4.429,341.7,0.846,0.045,20.69,109.1129,22.62,23.42,40.7,0,110.9,13.26,23.45,303.7
"2010-05-28 00:32:30",150285,4.451,341.7,0.947,0.08,20.65,109.1155,22.62,23.43,40.59,0,110.9,13.26,23.45,303.7
"2010-05-28 00:33:00",150286,4.565,342.6,1.878,0.095,20.69,109.1152,22.62,23.45,40.68,0,110.9,13.26,23.45,304.6
"2010-05-28 00:33:30",150287,4.607,344.3,1.842,0.12,20.71,109.1152,22.62,23.45,40.63,0,110.9,13.26,23.45,306.3
"2010-05-28 00:34:00",150288,4.549,341.5,1.201,0.106,20.64,109.1155,22.62,23.45,40.46,0,110.9,13.25,23.45,303.5
"2010-05-28 00:34:30",150289,4.67,343.5,1.501,0.101,20.67,109.1178,22.63,23.48,40.65,0,110.9,13.26,23.46,305.5
"2010-05-28 00:35:00",150290,4.794,345.4,1.16,0.076,20.71,109.1326,22.67,23.48,40.39,0,110.9,13.26,23.50,307.4
"2010-05-28 00:35:30",150291,4.774,347.3,1.071,0.091,20.73,109.1437,22.7,23.5,40.28,0,110.9,13.26,23.53,309.3
"2010-05-28 00:36:00",150292,4.733,348.1,0.838,0.127,20.82,109.1412,22.69,23.51,39.42,0,110.9,13.25,23.52,310.1
"2010-05-28 00:36:30",150293,4.716,347.8,0.781,0.144,20.79,109.1438,22.7,23.51,39.57,0,110.9,13.25,23.53,309.8
"2010-05-28 00:37:00",150294,4.604,348.4,1.022,0.17,20.75,109.1544,22.72,23.54,39.9,0,110.9,13.25,23.55,310.4
"2010-05-28 00:37:30",150295,4.631,347.5,0.729,0.11,20.77,109.1553,22.72,23.55,40.12,0,110.9,13.25,23.56,309.5
"2010-05-28 00:38:00",150296,4.628,347,0.645,0.071,20.86,109.1523,22.72,23.56,40.07,0,110.9,13.25,23.55,309.0
"2010-05-28 00:38:30",150297,4.489,346.8,0.788,0.072,20.9,109.1488,22.71,23.56,39.98,0,110.9,13.25,23.54,308.8
"2010-05-28 00:39:00",150298,4.473,346.1,0.871,0.063,20.95,109.1493,22.71,23.56,39.77,0,110.9,13.25,23.54,308.1
"2010-05-28 00:39:30",150299,4.303,348.5,1.733,0.298,21.08,109.1581,22.73,23.57,39.22,0,110.9,13.25,23.56,310.5
"2010-05-28 00:40:00",150300,4.487,347.8,0.677,0.119,21.1,109.1547,22.72,23.58,38.84,0,110.9,13.25,23.55,309.8
"2010-05-28 00:40:30",150301,4.669,346.9,0.553,0.108,21.09,109.1529,22.72,23.6,38.55,0,110.9,13.25,23.55,308.9
"2010-05-28 00:41:00",150302,4.573,347.6,0.839,0.076,21.12,109.1589,22.73,23.62,38.5,0,110.9,13.25,23.57,309.6
"2010-05-28 00:41:30",150303,4.723,345.2,1.838,0.172,21.05,109.1696,22.76,23.63,38.95,0,110.9,13.25,23.59,307.2
"2010-05-28 00:42:00",150304,4.856,342.2,1.009,0.067,21,109.1558,22.73,23.62,39.63,0,110.9,13.25,23.56,304.2
"2010-05-28 00:42:30",150305,4.901,339.8,1.363,0.048,21.04,109.1553,22.72,23.62,39.69,0,110.9,13.25,23.56,301.8
"2010-05-28 00:43:00",150306,4.868,337,1.287,0.074,21.04,109.1547,22.72,23.61,39.74,0,110.9,13.25,23.55,299.0
"2010-05-28 00:43:30",150307,4.927,337.7,0.986,0.109,21.12,109.1556,22.73,23.6,39.55,0,110.9,13.25,23.56,299.7
"2010-05-28 00:44:00",150308,5.018,339.4,0.685,0.036,21.1,109.1606,22.74,23.59,39.73,0,110.9,13.25,23.57,301.4
"2010-05-28 00:44:30",150309,5.162,340.9,0.594,0.074,21.12,109.1665,22.75,23.6,39.5,0,110.9,13.25,23.58,302.9
"2010-05-28 00:45:00",150310,5.105,342,1.404,0.061,21.13,109.1683,22.76,23.6,39.18,0,110.9,13.25,23.59,304.0
"2010-05-28 00:45:30",150311,5.095,343.7,0.712,0.062,21.14,109.171,22.77,23.59,39.05,0,110.9,13.26,23.60,305.7
"2010-05-28 00:46:00",150312,4.953,343.1,0.906,0.066,21.17,109.1725,22.77,23.6,39.02,0,110.9,13.26,23.60,305.1
"2010-05-28 00:46:30",150313,4.937,344.2,0.423,0.092,21.22,109.1731,22.77,23.61,38.62,0,110.9,13.26,23.60,306.2
"2010-05-28 00:47:00",150314,4.971,344.4,0.503,0.052,21.2,109.1747,22.77,23.61,38.59,0,110.9,13.25,23.61,306.4
"2010-05-28 00:47:30",150315,4.832,346.1,0.707,0.056,21.31,109.1741,22.77,23.63,38.16,0,110.9,13.25,23.60,308.1
"2010-05-28 00:48:00",150316,4.725,345.7,0.752,0.06,21.33,109.1781,22.78,23.63,38.05,0,110.9,13.25,23.61,307.7
"2010-05-28 00:48:30",150317,4.622,345.6,0.592,0.051,21.34,109.1967,22.83,23.66,37.89,0,110.9,13.25,23.66,307.6
"2010-05-28 00:49:00",150318,4.629,346.4,0.513,0.051,21.41,109.206,22.85,23.65,37.64,0,110.9,13.25,23.69,308.4
"2010-05-28 00:49:30",150319,4.505,347.8,1.079,0.123,21.32,109.2069,22.86,23.68,37.94,0,110.9,13.25,23.69,309.8
"2010-05-28 00:50:00",150320,4.285,350.3,0.919,0.164,21.31,109.2078,22.86,23.7,38,0,110.8,13.25,23.69,312.3
"2010-05-28 00:50:30",150321,3.909,350.9,1.464,0.224,21.41,109.2075,22.86,23.69,37.7,0,110.8,13.25,23.69,312.9
"2010-05-28 00:51:00",150322,3.345,353.7,1.922,0.321,21.44,109.2181,22.89,23.71,37.47,0,110.8,13.25,23.72,315.7
"2010-05-28 00:51:30",150323,2.858,355.6,1.756,0.245,21.45,109.2402,22.94,23.75,37.49,0,110.8,13.25,23.77,317.6
"2010-05-28 00:52:00",150324,2.653,355.5,2.779,0.27,21.42,109.2416,22.95,23.76,37.51,0,110.8,13.25,23.78,317.5
"2010-05-28 00:52:30",150325,2.47,355.4,2.098,0.36,21.4,109.2419,22.95,23.78,37.54,0,110.8,13.25,23.78,317.4
"2010-05-28 00:53:00",150326,2.556,355.6,2.259,0.226,21.33,109.2446,22.95,23.79,38.01,0,110.8,13.25,23.79,317.6
"2010-05-28 00:53:30",150327,2.138,357.1,2.807,0.342,21.35,109.2414,22.95,23.8,37.89,0,110.8,13.25,23.78,319.1
"2010-05-28 00:54:00",150328,2.202,357.5,2.547,0.23,21.36,109.2478,22.96,23.79,37.29,0,110.8,13.26,23.79,319.5
"2010-05-28 00:54:30",150329,2.382,355.8,2.164,0.222,21.41,109.257,22.99,23.81,37.08,0,110.8,13.25,23.82,317.8
"2010-05-28 00:55:00",150330,2.906,353.6,1.948,0.242,21.42,109.2745,23.03,23.82,36.76,0,110.8,13.26,23.86,315.6
"2010-05-28 00:55:30",150331,3.433,351.1,1.86,0.284,21.44,109.2741,23.03,23.85,36.54,0,110.8,13.26,23.86,313.1
"2010-05-28 00:56:00",150332,3.62,350.6,1.858,0.316,21.41,109.276,23.03,23.85,36.47,0,110.8,13.26,23.87,312.6
"2010-05-28 00:56:30",150333,4.075,347.8,1.178,0.139,21.48,109.2754,23.03,23.84,36.3,0,110.8,13.26,23.87,309.8
"2010-05-28 00:57:00",150334,4.244,347,0.81,0.11,21.49,109.2756,23.03,23.87,36.13,0,110.8,13.25,23.87,309.0
"2010-05-28 00:57:30",150335,4.339,345.9,0.929,0.108,21.47,109.2829,23.05,23.89,36,0,110.8,13.25,23.88,307.9
"2010-05-28 00:58:00",150336,4.218,346.1,1.068,0.099,21.5,109.292,23.08,23.9,35.94,0,110.8,13.25,23.91,308.1
"2010-05-28 00:58:30",150337,4.186,347.3,0.896,0.188,21.53,109.308,23.12,23.91,35.82,0,110.8,13.25,23.95,309.3
"2010-05-28 00:59:00",150338,4.281,347.4,0.949,0.116,21.51,109.3088,23.12,23.93,35.68,0,110.8,13.25,23.95,309.4
"2010-05-28 00:59:30",150339,4.067,346.3,1.348,0.171,21.53,109.3094,23.12,23.94,35.65,0,110.8,13.25,23.95,308.3
"2010-05-28 01:00:00",150340,4.053,347.5,1.383,0.158,21.55,109.3121,23.13,23.96,35.58,0,110.8,13.25,23.96,309.5
"2010-05-28 01:00:30",150341,3.808,348.3,2.324,0.245,21.54,109.3265,23.16,23.96,35.52,0,110.8,13.25,24.00,310.3
"2010-05-28 01:01:00",150342,3.866,350,1.504,0.22,21.5,109.3395,23.2,23.98,35.52,0,110.8,13.25,24.03,312.0
"2010-05-28 01:01:30",150343,3.642,350.7,1.603,0.219,21.5,109.3372,23.19,24,35.48,0,110.8,13.25,24.02,312.7
"2010-05-28 01:02:00",150344,4.073,348.8,1.843,0.235,21.53,109.34,23.2,24.01,35.32,0,110.8,13.25,24.03,310.8
"2010-05-28 01:02:30",150345,3.975,348.2,2.55,0.212,21.56,109.3423,23.21,24,35.29,0,110.8,13.25,24.04,310.2
"2010-05-28 01:03:00",150346,4.157,347.5,2.298,0.239,21.54,109.3429,23.21,24.02,35.25,0,110.8,13.25,24.04,309.5
"2010-05-28 01:03:30",150347,3.953,346.3,2.315,0.216,21.55,109.3429,23.21,24.02,35.17,0,110.8,13.25,24.04,308.3
"2010-05-28 01:04:00",150348,3.844,347.5,2.419,0.228,21.58,109.3435,23.21,24.03,35.12,0,110.8,13.25,24.04,309.5
"2010-05-28 01:04:30",150349,3.75,346.7,1.776,0.186,21.6,109.3426,23.21,24.04,35.09,0,110.8,13.25,24.04,308.7
"2010-05-28 01:05:00",150350,3.72,344.3,1.282,0.081,21.65,109.3445,23.21,24.05,35.03,0,110.8,13.25,24.04,306.3
"2010-05-28 01:05:30",150351,3.685,345.2,1.958,0.167,21.64,109.3592,23.25,24.07,34.94,0,110.8,13.25,24.08,307.2
"2010-05-28 01:06:00",150352,3.602,345.2,1.278,0.097,21.63,109.3763,23.29,24.08,34.86,0,110.8,13.25,24.13,307.2
"2010-05-28 01:06:30",150353,3.591,343.1,1.289,0.127,21.62,109.3763,23.29,24.1,34.79,0,110.8,13.25,24.13,305.1
"2010-05-28 01:07:00",150354,3.534,342,1.063,0.077,21.65,109.3766,23.29,24.1,34.76,0,110.8,13.25,24.13,304.0
"2010-05-28 01:07:30",150355,3.509,340.3,1.748,0.096,21.65,109.3775,23.3,24.12,34.69,0,110.8,13.25,24.13,302.3
"2010-05-28 01:08:00",150356,3.439,340.2,1.398,0.083,21.66,109.38,23.3,24.13,34.61,0,110.8,13.25,24.14,302.2
"2010-05-28 01:08:30",150357,3.382,339.1,1.079,0.064,21.67,109.3942,23.34,24.16,34.56,0,110.8,13.25,24.17,301.1
"2010-05-28 01:09:00",150358,3.244,338.2,0.945,0.054,21.69,109.4084,23.37,24.17,34.51,0,110.8,13.26,24.21,300.2
"2010-05-28 01:09:30",150359,3.238,338.5,1.231,0.079,21.7,109.4101,23.38,24.2,34.42,0,110.8,13.26,24.21,300.5
"2010-05-28 01:10:00",150360,3.257,339.2,1.924,0.11,21.71,109.4116,23.38,24.2,34.37,0,110.8,13.26,24.22,301.2
"2010-05-28 01:10:30",150361,3.21,336.2,0.992,0.055,21.76,109.4127,23.39,24.22,34.28,0,110.8,13.26,24.22,298.2
"2010-05-28 01:11:00",150362,3.25,335.8,0.758,0.06,21.77,109.4343,23.44,24.23,34.02,0,110.8,13.26,24.28,297.8
"2010-05-28 01:11:30",150363,3.387,334.9,0.801,0.064,21.76,109.4454,23.47,24.25,33.78,0,110.8,13.26,24.30,296.9
"2010-05-28 01:12:00",150364,3.349,335.9,0.931,0.055,21.75,109.4457,23.47,24.28,33.7,0,110.8,13.26,24.30,297.9
"2010-05-28 01:12:30",150365,3.238,332.9,1.097,0.051,21.83,109.4526,23.49,24.3,33.59,0,110.8,13.26,24.32,294.9
"2010-05-28 01:13:00",150366,3.107,331.3,0.544,0.047,21.82,109.4751,23.55,24.32,33.58,0,110.8,13.26,24.38,293.3
"2010-05-28 01:13:30",150367,3.141,331.6,1.299,0.06,21.79,109.4779,23.55,24.34,33.51,0,110.8,13.26,24.39,293.6
"2010-05-28 01:14:00",150368,3.086,329.9,1.246,0.059,21.8,109.4788,23.56,24.35,33.42,0,110.8,13.26,24.39,291.9
"2010-05-28 01:14:30",150369,2.946,331.3,1.509,0.047,21.77,109.4779,23.55,24.37,33.4,0,110.8,13.26,24.39,293.3
"2010-05-28 01:15:00",150370,3.015,332.4,1.066,0.064,21.77,109.4788,23.56,24.36,33.32,0,110.8,13.26,24.39,294.4
"2010-05-28 01:15:30",150371,3.045,331.9,1.431,0.045,21.75,109.479,23.56,24.38,33.26,0,110.8,13.26,24.39,293.9
"2010-05-28 01:16:00",150372,2.864,331.3,0.644,0.06,21.77,109.4905,23.59,24.39,33.24,0,110.8,13.26,24.42,293.3
"2010-05-28 01:16:30",150373,2.774,332,1.271,0.079,21.81,109.4989,23.61,24.41,33.19,0,110.8,13.26,24.44,294.0
"2010-05-28 01:17:00",150374,2.62,333.3,1.25,0.058,21.82,109.5045,23.62,24.42,33.15,0,110.8,13.26,24.46,295.3
"2010-05-28 01:17:30",150375,2.482,330.7,1.395,0.072,21.81,109.5068,23.63,24.44,33.16,0,110.8,13.25,24.46,292.7
"2010-05-28 01:18:00",150376,2.309,332.3,1.212,0.067,21.85,109.508,23.63,24.44,33.11,0,110.8,13.26,24.46,294.3
"2010-05-28 01:18:30",150377,2.135,328.9,1.748,0.071,21.8,109.5098,23.64,24.45,33.13,0,110.8,13.25,24.47,290.9
"2010-05-28 01:19:00",150378,1.914,327.1,4.242,0.085,21.84,109.5086,23.63,24.45,33.12,0,110.8,13.25,24.47,289.1
"2010-05-28 01:19:30",150379,1.787,331.1,2.681,0.126,21.81,109.5098,23.64,24.46,33.07,0,110.8,13.25,24.47,293.1
"2010-05-28 01:20:00",150380,1.811,330.8,3.017,0.113,21.85,109.5088,23.63,24.48,33.05,0,110.8,13.25,24.47,292.8
"2010-05-28 01:20:30",150381,1.793,334.1,1.83,0.098,21.87,109.5167,23.65,24.49,33.02,0,110.8,13.25,24.49,296.1
"2010-05-28 01:21:00",150382,1.747,333.2,2.88,0.1,21.86,109.5354,23.7,24.5,32.96,0,110.8,13.25,24.54,295.2
"2010-05-28 01:21:30",150383,1.699,329.8,1.9,0.049,21.85,109.5396,23.71,24.51,32.95,0,110.8,13.25,24.55,291.8
"2010-05-28 01:22:00",150384,1.688,326.5,1.156,0.061,21.89,109.5423,23.72,24.52,32.91,0,110.8,13.24,24.55,288.5
"2010-05-28 01:22:30",150385,1.625,331.3,3.057,0.037,21.84,109.542,23.72,24.53,32.86,0,110.8,13.24,24.55,293.3
"2010-05-28 01:23:00",150386,1.548,335,4.493,0.125,21.88,109.5433,23.72,24.53,32.83,0,110.8,13.24,24.56,297.0
"2010-05-28 01:23:30",150387,1.668,329.1,1.369,0.068,21.83,109.5426,23.72,24.55,32.83,0,110.8,13.24,24.55,291.1
"2010-05-28 01:24:00",150388,1.563,332.7,4.583,0.116,21.84,109.5433,23.72,24.54,32.78,0,110.9,13.24,24.56,294.7
"2010-05-28 01:24:30",150389,1.731,335.5,4.085,0.106,21.85,109.5417,23.72,24.54,32.74,0,110.9,13.24,24.55,297.5
"2010-05-28 01:25:00",150390,1.761,337.2,3.872,0.078,21.81,109.5408,23.71,24.55,32.73,0,110.8,13.24,24.55,299.2
"2010-05-28 01:25:30",150391,1.624,340.3,4.482,0.089,21.83,109.5414,23.72,24.54,32.69,0,110.9,13.25,24.55,302.3
"2010-05-28 01:26:00",150392,1.541,341.3,3.548,0.083,21.86,109.5433,23.72,24.54,32.7,0,110.9,13.25,24.56,303.3
"2010-05-28 01:26:30",150393,1.656,342.2,3.904,0.072,21.86,109.5381,23.71,24.54,32.72,0,110.9,13.25,24.54,304.2
"2010-05-28 01:27:00",150394,1.652,340.5,6.412,0.121,21.83,109.5399,23.71,24.55,32.72,0,110.9,13.26,24.55,302.5
"2010-05-28 01:27:30",150395,1.621,341.8,2.341,0.105,21.84,109.5424,23.72,24.54,32.73,0,110.9,13.26,24.55,303.8
"2010-05-28 01:28:00",150396,1.852,339.1,2.718,0.083,21.84,109.5376,23.71,24.53,32.75,0,110.9,13.26,24.54,301.1
"2010-05-28 01:28:30",150397,1.65,335.4,1.39,0.049,21.85,109.5263,23.68,24.53,32.77,0,110.9,13.26,24.51,297.4
"2010-05-28 01:29:00",150398,1.741,336.9,2.839,0.112,21.88,109.5299,23.69,24.54,32.77,0,110.9,13.26,24.52,298.9
"2010-05-28 01:29:30",150399,1.757,331.6,1.055,0.053,21.87,109.5375,23.71,24.54,32.76,0,110.9,13.26,24.54,293.6
"2010-05-28 01:30:00",150400,1.689,328.1,2.002,0.068,21.95,109.5414,23.72,24.54,32.75,0,110.9,13.26,24.55,290.1
"2010-05-28 01:30:30",150401,1.714,322.3,3.716,0.069,22.06,109.543,23.72,24.56,32.66,0,110.9,13.26,24.56,284.3
"2010-05-28 01:31:00",150402,1.693,319.5,2.131,0.089,22.11,109.5558,23.75,24.56,32.57,0,110.9,13.25,24.59,281.5
"2010-05-28 01:31:30",150403,1.917,316.7,2.592,0.09,22.07,109.5764,23.81,24.6,32.5,0,110.9,13.25,24.64,278.7
"2010-05-28 01:32:00",150404,1.993,312.9,2.28,0.071,22.11,109.579,23.81,24.63,32.37,0,110.9,13.25,24.65,274.9
"2010-05-28 01:32:30",150405,2.187,299.9,7.6,0.196,22.37,109.605,23.88,24.66,31.97,0,110.9,13.25,24.72,261.9
"2010-05-28 01:33:00",150406,1.899,296.4,10.61,0.179,22.34,109.638,23.96,24.72,31.61,0,110.9,13.25,24.80,258.4
"2010-05-28 01:33:30",150407,2.092,299,4.15,0.068,22.14,109.6444,23.98,24.76,31.97,0,110.9,13.25,24.82,261.0
"2010-05-28 01:34:00",150408,1.242,267.8,22.76,0.641,22.41,109.6631,24.03,24.78,31.52,0,110.9,13.25,24.86,229.8
"2010-05-28 01:34:30",150409,0.922,293,17.66,0.166,22.45,109.6969,24.12,24.81,31.16,0,110.9,13.25,24.95,255.0
"2010-05-28 01:35:00",150410,0.73,310.9,19.15,0.346,22.15,109.7114,24.15,24.86,31.59,0,110.9,13.25,24.99,272.9
"2010-05-28 01:35:30",150411,0.885,238.8,22.04,0.656,22.37,109.7122,24.16,24.88,31.01,0,110.9,13.25,24.99,200.8
"2010-05-28 01:36:00",150412,0.836,220.3,26.42,0.379,22.14,109.7298,24.2,24.9,31.31,0,110.9,13.25,25.04,182.3
"2010-05-28 01:36:30",150413,0.006,297.1,61.51,0.101,22.07,109.7114,24.15,24.93,31.28,0,110.9,13.25,24.99,259.1
"2010-05-28 01:37:00",150414,0.174,347.7,64.32,0.243,22.17,109.7083,24.15,24.95,31.1,0,110.9,13.24,24.98,309.7
"2010-05-28 01:37:30",150415,0.536,277.5,25.49,0.212,22.24,109.7103,24.15,24.97,31.04,0,110.9,13.24,24.99,239.5
"2010-05-28 01:38:00",150416,0.193,311.7,27.37,0.127,22.24,109.729,24.2,24.97,31,0,110.9,13.24,25.03,273.7
"2010-05-28 01:38:30",150417,0.302,322.6,20.34,0.234,22.28,109.7297,24.2,24.99,30.95,0,110.9,13.24,25.04,284.6
"2010-05-28 01:39:00",150418,0.67,333.2,23.89,0.335,22.36,109.7439,24.24,25,30.75,0,110.9,13.24,25.07,295.2
"2010-05-28 01:39:30",150419,0.297,34.51,14.9,0.128,22.29,109.743,24.23,25.02,30.77,0,110.9,13.24,25.07,356.5
"2010-05-28 01:40:00",150420,0.382,328.4,20.72,0.308,22.07,109.743,24.23,25.04,31.02,0,110.9,13.24,25.07,290.4
"2010-05-28 01:40:30",150421,0.823,316.7,3.958,0.098,22.04,109.7382,24.22,25.05,31.16,0,110.9,13.24,25.06,278.7
"2010-05-28 01:41:00",150422,0.932,305.1,10.94,0.158,22.09,109.7117,24.15,25.03,31.05,0,110.9,13.23,24.99,267.1
"2010-05-28 01:41:30",150423,0.938,306.2,3.887,0.072,22.22,109.7117,24.15,25.04,30.84,0,110.9,13.23,24.99,268.2
"2010-05-28 01:42:00",150424,0.969,305.9,4.302,0.087,22.2,109.7154,24.16,25.02,30.87,0,110.9,13.23,25.00,267.9
"2010-05-28 01:42:30",150425,0.812,286.6,20.46,0.149,22.35,109.7349,24.21,25.02,30.61,0,110.9,13.24,25.05,248.6
"2010-05-28 01:43:00",150426,1.073,313.4,6.349,0.154,22.05,109.7436,24.24,25.05,30.93,0,110.9,13.24,25.07,275.4
"2010-05-28 01:43:30",150427,0.837,268.1,24.32,0.362,22.35,109.7406,24.23,25.04,30.64,0,110.9,13.24,25.06,230.1
"2010-05-28 01:44:00",150428,0.811,205.5,17.7,0.377,22.29,109.7449,24.24,25.07,30.62,0,110.9,13.24,25.08,167.5
"2010-05-28 01:44:30",150429,1.322,202.4,9.26,0.168,22.42,109.7626,24.28,25.08,30.51,0,110.9,13.24,25.12,164.4
"2010-05-28 01:45:00",150430,1.224,199.9,5.701,0.12,22.38,109.7712,24.31,25.1,30.5,0,110.9,13.24,25.14,161.9
"2010-05-28 01:45:30",150431,1.11,226,11.94,0.173,22.37,109.781,24.33,25.12,30.36,0,110.9,13.24,25.17,188.0
"2010-05-28 01:46:00",150432,1.044,235.4,5.643,0.107,22.37,109.8029,24.39,25.17,30.14,0,110.9,13.24,25.23,197.4
"2010-05-28 01:46:30",150433,0.807,253.2,11.96,0.147,22.26,109.8037,24.39,25.17,30.29,0,110.9,13.24,25.23,215.2
"2010-05-28 01:47:00",150434,0.589,243.5,7.569,0.21,22.17,109.7952,24.37,25.17,30.5,0,110.9,13.24,25.21,205.5
"2010-05-28 01:47:30",150435,0.952,258.2,8.54,0.082,22.12,109.7664,24.29,25.18,30.49,0,110.9,13.24,25.13,220.2